Back to catalog

COSMOS 970 DEB

AliveLEO
NORAD 10569·DEBRIS·🇷🇺 Russia

Launched Dec 21, 1977 from Baikonur Cosmodrome

Loading…

Next Passes (next 24 hours)

TLE

FreshSource: Space-Track

Epoch: Sep 14, 2026, 15:22 UTC

1 10569U 77121L   26257.64075520  .00000232  00000-0  29077-3 0  9995
2 10569  65.4001  32.4121 0128592 144.5528 216.4165 13.78983054442113

Track COSMOS 970 DEB in real time with AllMySat

Download on the App Store